This is the latest recevied weather packets stored in our database for station/object YC0ACE-13. If no packets are shown the sender has not sent any weather packets the latest 10 day(s).
| Time | Temp. | Humidity | Pressure | Rain* | Wind** | Luminosity | Snow |
|---|---|---|---|---|---|---|---|
| 1777555825 | 26.11° C | 87% | 1017.9 hPa | 0 mm | - | 0 W/m² | - |
| 1777555525 | 25.56° C | 87% | 1017.6 hPa | 0 mm | - | 0 W/m² | - |
| 1777555225 | 25.56° C | 87% | 1017.6 hPa | 0 mm | - | 0 W/m² | - |
| 1777554925 | 25.56° C | 88% | 1017.6 hPa | 0 mm | - | 0 W/m² | - |
| 1777554625 | 25.56° C | 89% | 1017.6 hPa | 0 mm | - | 0 W/m² | - |
| 1777554325 | 25.56° C | 89% | 1017.6 hPa | 0 mm | - | 0 W/m² | - |
| 1777554026 | 25.56° C | 89% | 1017.3 hPa | 0 mm | - | 0 W/m² | - |
| 1777553724 | 25.56° C | 90% | 1017.3 hPa | 0 mm | - | 0 W/m² | - |
| 1777553425 | 25.56° C | 89% | 1017.3 hPa | 0 mm | - | 0 W/m² | - |
| 1777553125 | 25.56° C | 89% | 1017.3 hPa | 0 mm | - | 0 W/m² | - |
| 1777552828 | 25.56° C | 90% | 1017.3 hPa | 0 mm | - | 0 W/m² | - |
| 1777552526 | 25° C | 90% | 1016.9 hPa | 0 mm | - | 0 W/m² | - |
| 1777552226 | 25° C | 90% | 1017.3 hPa | 0 mm | - | 0 W/m² | - |
| 1777551925 | 25° C | 90% | 1016.9 hPa | 0 mm | - | 0 W/m² | - |
| 1777551624 | 25° C | 90% | 1016.9 hPa | 1.27 mm | - | 0 W/m² | - |
| 1777551327 | 25° C | 90% | 1016.9 hPa | 1.27 mm | - | 0 W/m² | - |
| 1777551024 | 25° C | 90% | 1016.9 hPa | 0 mm | - | 0 W/m² | - |
| 1777550725 | 25° C | 91% | 1016.9 hPa | 0 mm | - | 0 W/m² | - |
| 1777550428 | 25° C | 91% | 1016.6 hPa | 0 mm | - | 0 W/m² | - |
| 1777550125 | 24.44° C | 91% | 1016.6 hPa | 1.78 mm | - | 0 W/m² | - |
| 1777549824 | 24.44° C | 91% | 1016.3 hPa | 3.05 mm | - | 0 W/m² | - |
| 1777549525 | 24.44° C | 91% | 1016.3 hPa | 1.27 mm | - | 0 W/m² | - |
| 1777549225 | 24.44° C | 90% | 1016.3 hPa | 3.05 mm | - | 0 W/m² | - |
| 1777548927 | 24.44° C | 89% | 1016.6 hPa | 7.87 mm | - | 0 W/m² | - |
| 1777548625 | 24.44° C | 87% | 1016.6 hPa | 4.83 mm | - | 0 W/m² | - |
* Rain latest hour (hover to see other rain measurements)
** Current wind speed in m/s (hover to see current wind gust speed)